Location: Cuiry
(49.3858°N, 3.7708°E)
Time: 01:16:42
(UTC+00:00)

UNK - Pass Details

Date: 15 April 2026
Orbit: 653 x 673 km, 98.4° (Epoch: 19 May)

Event Time Altitude Azimuth Distance (km) Brightness Sun altitude
Rises 03:09:22 0° 130° (SE) 3,014 7.2 -15.9°
Reaches altitude 10° 03:11:52 10° 118° (ESE) 2,103 6.6 -15.6°
Maximum altitude 03:15:40 26° 63° (ENE) 1,314 6.1 -15.1°
Drops below altitude 10° 03:19:29 10° 7° (N) 2,109 6.9 -14.6°
Sets 03:21:59 0° 355° (N) 3,025 7.5 -14.3°
